When you browse on this site, cookies collect data to enhance your experience and personalize the content and advertising you see.
Visit our Privacy Policy to learn more. By continuing to use the site, you agree to this use of cookies and data.
EN

Hourly Weather Zelenyi Hai

Today, 9 August, Sunday

Time Temperature Precipitation Wind Pressure Humidity
00:00 +23°C° 0 mm 6 mps 754 mmHg 49%
01:00 +23°C° 0 mm 6 mps 754 mmHg 51%
02:00 +22°C° 0 mm 5 mps 754 mmHg 54%
03:00 +21°C° 0 mm 5 mps 754 mmHg 57%
04:00 +21°C° 0 mm 5 mps 754 mmHg 58%
05:00 +21°C° 0 mm 5 mps 754 mmHg 60%
06:00 +20°C° 0 mm 6 mps 754 mmHg 62%
07:00 +22°C° 0 mm 6 mps 754 mmHg 56%
08:00 +24°C° 0 mm 6 mps 754 mmHg 50%
09:00 +26°C° 0 mm 7 mps 754 mmHg 44%
10:00 +27°C° 0 mm 7 mps 754 mmHg 41%
11:00 +28°C° 0 mm 6 mps 754 mmHg 38%
12:00 +29°C° 0 mm 6 mps 754 mmHg 35%
13:00 +30°C° 0 mm 6 mps 753 mmHg 33%
14:00 +32°C° 0 mm 6 mps 753 mmHg 31%
15:00 +32°C° 0 mm 5 mps 753 mmHg 28%
16:00 +32°C° 0 mm 6 mps 753 mmHg 31%
17:00 +30°C° 0 mm 6 mps 753 mmHg 33%
18:00 +30°C° 0 mm 6 mps 753 mmHg 35%
19:00 +28°C° 0 mm 5 mps 753 mmHg 40%
20:00 +27°C° 0 mm 5 mps 753 mmHg 44%
21:00 +25°C° 0 mm 4 mps 753 mmHg 49%
22:00 +23°C° 0 mm 4 mps 754 mmHg 51%
23:00 +23°C° 0 mm 4 mps 754 mmHg 54%

Tomorrow, 10 August, Monday

Time Temperature Precipitation Wind Pressure Humidity
00:00 +22°C° 0 mm 4 mps 754 mmHg 56%
01:00 +21°C° 0 mm 4 mps 754 mmHg 58%
02:00 +21°C° 0 mm 4 mps 754 mmHg 60%
03:00 +20°C° 0 mm 4 mps 754 mmHg 62%
04:00 +20°C° 0 mm 4 mps 754 mmHg 63%
05:00 +20°C° 0 mm 4 mps 754 mmHg 64%
06:00 +20°C° 0 mm 4 mps 754 mmHg 65%
07:00 +22°C° 0 mm 4 mps 754 mmHg 58%
08:00 +25°C° 0 mm 4 mps 754 mmHg 51%
09:00 +27°C° 0 mm 4 mps 754 mmHg 45%
10:00 +28°C° 0 mm 4 mps 754 mmHg 41%
11:00 +29°C° 0 mm 4 mps 754 mmHg 37%
12:00 +32°C° 0 mm 4 mps 754 mmHg 33%
13:00 +32°C° 0 mm 4 mps 754 mmHg 31%
14:00 +33°C° 0 mm 4 mps 753 mmHg 30%
15:00 +33°C° 0 mm 3 mps 753 mmHg 28%
16:00 +33°C° 0 mm 3 mps 753 mmHg 29%
17:00 +31°C° 0 mm 3 mps 753 mmHg 31%
18:00 +31°C° 0 mm 3 mps 753 mmHg 32%
19:00 +29°C° 0 mm 4 mps 753 mmHg 36%
20:00 +27°C° 0 mm 4 mps 753 mmHg 41%
21:00 +26°C° 0 mm 4 mps 754 mmHg 45%
22:00 +25°C° 0 mm 4 mps 754 mmHg 48%
23:00 +23°C° 0 mm 4 mps 754 mmHg 51%

Day after tomorrow, 11 August, Tuesday

Time Temperature Precipitation Wind Pressure Humidity
00:00 +22°C° 0 mm 4 mps 754 mmHg 54%
01:00 +22°C° 0 mm 3 mps 754 mmHg 55%
02:00 +21°C° 0 mm 3 mps 754 mmHg 57%
03:00 +21°C° 0 mm 3 mps 754 mmHg 59%
04:00 +21°C° 0 mm 3 mps 754 mmHg 59%
05:00 +20°C° 0 mm 3 mps 754 mmHg 60%
06:00 +20°C° 0 mm 2 mps 754 mmHg 61%
07:00 +23°C° 0 mm 2 mps 754 mmHg 54%
08:00 +25°C° 0 mm 2 mps 754 mmHg 48%
09:00 +27°C° 0 mm 2 mps 754 mmHg 42%
10:00 +28°C° 0 mm 2 mps 754 mmHg 40%
11:00 +28°C° 0 mm 2 mps 754 mmHg 38%
12:00 +29°C° 0 mm 2 mps 754 mmHg 36%
13:00 +30°C° 0 mm 2 mps 754 mmHg 35%
14:00 +30°C° 0 mm 2 mps 754 mmHg 34%
15:00 +30°C° 0 mm 2 mps 753 mmHg 33%
16:00 +30°C° 0 mm 2 mps 753 mmHg 33%
17:00 +30°C° 0 mm 2 mps 753 mmHg 33%
18:00 +30°C° 0 mm 2 mps 753 mmHg 34%
19:00 +28°C° 0 mm 2 mps 753 mmHg 38%
20:00 +26°C° 0 mm 2 mps 753 mmHg 42%
21:00 +25°C° 0 mm 2 mps 753 mmHg 46%
22:00 +24°C° 0 mm 2 mps 753 mmHg 48%
23:00 +23°C° 0 mm 1 mps 753 mmHg 49%

12 August, Wednesday

Time Temperature Precipitation Wind Pressure Humidity
00:00 +23°C° 0 mm 1 mps 753 mmHg 50%
01:00 +22°C° 0 mm 1 mps 753 mmHg 51%
02:00 +22°C° 0 mm 1 mps 753 mmHg 52%
03:00 +22°C° 0 mm 1 mps 753 mmHg 53%
04:00 +22°C° 0 mm 1 mps 753 mmHg 54%
05:00 +22°C° 0 mm 1 mps 753 mmHg 55%
06:00 +22°C° 0 mm 1 mps 752 mmHg 56%
07:00 +24°C° 0 mm 1 mps 752 mmHg 50%
08:00 +26°C° 0 mm 1 mps 753 mmHg 45%
09:00 +28°C° 0 mm 1 mps 753 mmHg 40%
10:00 +29°C° 0 mm 2 mps 753 mmHg 38%
11:00 +30°C° 0 mm 2 mps 753 mmHg 36%
12:00 +33°C° 0 mm 3 mps 753 mmHg 33%
13:00 +31°C° 0 mm 3 mps 752 mmHg 35%
14:00 +32°C° 0 mm 4 mps 752 mmHg 36%
15:00 +32°C° 0 mm 5 mps 752 mmHg 38%
16:00 +29°C° 0.7 mm 4 mps 752 mmHg 45%
17:00 +28°C° 0.7 mm 3 mps 752 mmHg 52%
18:00 +27°C° 0.7 mm 3 mps 752 mmHg 59%
19:00 +25°C° 1.1 mm 3 mps 753 mmHg 64%
20:00 +24°C° 1.1 mm 3 mps 753 mmHg 68%
21:00 +22°C° 1.1 mm 3 mps 753 mmHg 73%
22:00 +21°C° 0 mm 4 mps 754 mmHg 72%
23:00 +20°C° 0 mm 4 mps 754 mmHg 71%

13 August, Thursday

Time Temperature Precipitation Wind Pressure Humidity
00:00 +19°C° 0 mm 5 mps 754 mmHg 70%
01:00 +19°C° 0 mm 5 mps 754 mmHg 70%
02:00 +18°C° 0 mm 4 mps 754 mmHg 71%
03:00 +17°C° 0 mm 4 mps 754 mmHg 72%
04:00 +17°C° 0 mm 4 mps 754 mmHg 73%
05:00 +15°C° 0 mm 4 mps 754 mmHg 75%
06:00 +15°C° 0 mm 4 mps 754 mmHg 77%
07:00 +18°C° 0 mm 4 mps 755 mmHg 70%
08:00 +19°C° 0 mm 5 mps 755 mmHg 63%
09:00 +21°C° 0 mm 5 mps 755 mmHg 56%
10:00 +22°C° 0 mm 5 mps 755 mmHg 50%
11:00 +23°C° 0 mm 5 mps 755 mmHg 45%
12:00 +25°C° 0 mm 4 mps 755 mmHg 39%
13:00 +25°C° 0 mm 5 mps 755 mmHg 38%
14:00 +26°C° 0 mm 5 mps 755 mmHg 37%
15:00 +26°C° 0 mm 5 mps 755 mmHg 36%
16:00 +26°C° 0 mm 5 mps 755 mmHg 37%
17:00 +25°C° 0 mm 5 mps 756 mmHg 38%
18:00 +25°C° 0 mm 5 mps 756 mmHg 39%
19:00 +22°C° 0 mm 5 mps 756 mmHg 42%
20:00 +21°C° 0 mm 4 mps 756 mmHg 46%
21:00 +20°C° 0 mm 4 mps 757 mmHg 49%
22:00 +19°C° 0 mm 3 mps 757 mmHg 51%
23:00 +18°C° 0 mm 3 mps 757 mmHg 53%

14 August, Friday

Time Temperature Precipitation Wind Pressure Humidity
00:00 +17°C° 0 mm 2 mps 757 mmHg 55%
01:00 +17°C° 0 mm 3 mps 757 mmHg 57%
02:00 +16°C° 0 mm 3 mps 757 mmHg 59%
03:00 +16°C° 0 mm 3 mps 757 mmHg 62%
04:00 +16°C° 0 mm 3 mps 757 mmHg 64%
05:00 +14°C° 0 mm 3 mps 757 mmHg 66%
06:00 +14°C° 0 mm 3 mps 757 mmHg 68%
07:00 +17°C° 0 mm 3 mps 758 mmHg 61%
08:00 +19°C° 0 mm 3 mps 758 mmHg 55%
09:00 +20°C° 0 mm 3 mps 758 mmHg 48%
10:00 +21°C° 0 mm 3 mps 758 mmHg 44%
11:00 +22°C° 0 mm 3 mps 758 mmHg 41%
12:00 +24°C° 0 mm 3 mps 758 mmHg 38%
13:00 +25°C° 0 mm 3 mps 757 mmHg 36%
14:00 +25°C° 0 mm 3 mps 757 mmHg 34%
15:00 +26°C° 0 mm 3 mps 757 mmHg 32%
16:00 +26°C° 0 mm 3 mps 757 mmHg 33%
17:00 +25°C° 0 mm 4 mps 757 mmHg 34%
18:00 +25°C° 0 mm 4 mps 757 mmHg 34%
19:00 +22°C° 0 mm 4 mps 757 mmHg 37%
20:00 +21°C° 0 mm 3 mps 757 mmHg 40%
21:00 +19°C° 0 mm 3 mps 757 mmHg 43%
22:00 +19°C° 0 mm 2 mps 758 mmHg 45%
23:00 +18°C° 0 mm 2 mps 758 mmHg 47%
Show more